一网星座-0425星 (ONEWEB-0425 )

导读

ONEWEB-0425是英国OneWeb公司低轨卫星互联网星座的成员,于2022年2月10日发射,属于公司构建全球卫星互联网网络的规划部署。OneWeb计划由648颗低轨卫星组成星座,旨在为全球提供高速低延迟的宽带互联网服务,该卫星升空后助力公司推进星座组网,目前OneWeb已基本完成初始星座建设,成为全球第二大低轨卫星互联网运营商。

基本信息
目录编号:
51628
目录名称:
ONEWEB-0425
国际标识:
2022-012G
轨道中心:
EARTH
卫星名称:
一网星座-0425星
卫星全名:
一网星座-0425星 (ONEWEB-0425 )
卫星状态:
在轨 (已飞行1585 天)
发射日期:
2022-02-10 UTC
国别 :
英国 (GB)
星等 :
--
轨道信息
数据来源 国际轨道数据 AOE轨道数据
星历时间 2026-06-14T00:07:00+0800
19小时前
查看轨道信息
2026-06-10T05:00:00+0800
4天前
查看轨道信息
半长轴 7599.853km 7599.832km
偏心率 0.0002094 0.0002105
轨道倾角 87.883° 87.884°
近地点辐角 77.855° 83.885°
升交点赤经 36.967° 37.725°
平近点角 282.281° 16.882°
近地点 1220.124km 1220.095km
远地点 1223.308km 1223.295km
周期 109.892分钟 109.892分钟
每日圈数 13.103732 13.103786
详细信息
平衡模式:
三轴稳定
覆盖范围:
全球
运营商:
一网卫星公司
运营商所在国:
英国
制造商(研发单位):
一网卫星公司
制造商所在国:
英国
使用方式:
暂无
卫星简介
OneWeb卫星网络由648颗重约125公斤的微型卫星组成,运行在1200公里的轨道上。 每颗卫星都能够提供至少每秒8千兆位的吞吐量,以使用其高吞吐量的Ku频段有效载荷为家庭和移动平台提供互联网接入。该卫星仍在工作。
2D轨道图
3D轨道图
轨道高度分析图
轨道倾角分析图
轨道综合分析图
查看轨道综合分析图